EW8967 Weather Reports


time (UTC)temp
C
wind
direction
speed
KPH
gust
KPH
rain 1hr
cm
rain 24hr
cm
rain mn
cm
humidity
%
barometer
mb
20260502123507 16 0 3.2 9.7 0.00 0.00 0.00 42 1014.0
20260502123008 16 0 1.6 8.0 0.00 0.00 0.00 43 1014.0
20260502122006 16 0 0.0 0.0 0.00 0.00 0.00 40 1013.9
20260502121505 15 0 0.0 0.0 0.00 0.00 0.00 40 1013.9
20260502121004 15 0 0.0 0.0 0.00 0.00 0.00 40 1013.8
20260502120503 15 0 0.0 0.0 0.00 0.00 0.00 40 1013.8
20260502120458 15 0 0.0 0.0 0.00 0.00 0.00 39 1013.7
20260502115455 15 0 0.0 0.0 0.00 0.00 0.00 39 1013.8
20260502114956 15 0 0.0 0.0 0.00 0.00 0.00 39 1013.8
20260502114455 15 0 0.0 0.0 0.00 0.00 0.00 39 1013.8
20260502113956 16 0 0.0 0.0 0.00 0.00 0.00 38 1013.8
20260502113455 16 0 0.0 0.0 0.00 0.00 0.00 38 1013.8
20260502112953 16 0 0.0 0.0 0.00 0.00 0.00 38 1013.8
20260502112454 16 0 0.0 0.0 0.00 0.00 0.00 38 1013.8
20260502111953 16 0 0.0 0.0 0.00 0.00 0.00 38 1013.8
20260502111454 16 0 0.0 0.0 0.00 0.00 0.00 37 1014.0
20260502110953 16 0 0.0 0.0 0.00 0.00 0.00 37 1014.0
20260502110452 16 0 0.0 0.0 0.00 0.00 0.00 37 1014.0
20260502105952 16 0 0.0 6.4 0.00 0.00 0.00 37 1014.0
20260502105452 16 0 0.0 6.4 0.00 0.00 0.00 37 1014.0
20260502104952 16 0 0.0 3.2 0.00 0.00 0.00 36 1014.0
20260502104452 16 0 0.0 1.6 0.00 0.00 0.00 36 1014.0
20260502103952 16 0 0.0 1.6 0.00 0.00 0.00 36 1014.0
20260502103454 17 0 0.0 6.4 0.00 0.00 0.00 35 1013.7
20260502103450 16 0 0.0 1.6 0.00 0.00 0.00 36 1013.9
20260502102450 17 0 0.0 6.4 0.00 0.00 0.00 35 1013.7
20260502101950 17 0 0.0 3.2 0.00 0.00 0.00 35 1013.5
20260502101455 17 0 0.0 6.4 0.00 0.00 0.00 34 1013.5
20260502101450 17 0 0.0 3.2 0.00 0.00 0.00 35 1013.6
20260502100450 17 0 0.0 6.4 0.00 0.00 0.00 34 1013.5
20260502091446 17 0 0.0 0.0 0.00 0.00 0.00 34 1013.5
20260502090946 17 0 0.0 0.0 0.00 0.00 0.00 33 1013.5
20260502090445 18 0 0.0 0.0 0.00 0.00 0.00 33 1013.5
20260502071442 20 0 0.0 1.6 0.00 0.00 0.00 29 1013.6
20260502071438 20 0 0.0 3.2 0.00 0.00 0.00 29 1013.6
20260502070440 20 0 0.0 3.2 0.00 0.00 0.00 28 1013.6
20260502070435 20 0 0.0 3.2 0.00 0.00 0.00 29 1013.6
20260502065435 20 0 0.0 1.6 0.00 0.00 0.00 28 1013.5
20260502064936 20 0 0.0 0.0 0.00 0.00 0.00 28 1013.5
20260502064435 20 0 0.0 3.2 0.00 0.00 0.00 28 1013.5
20260502063936 20 0 0.0 6.4 0.00 0.00 0.00 28 1013.5
20260502063433 21 0 0.0 6.4 0.00 0.00 0.00 28 1013.5
20260502062933 21 0 0.0 3.2 0.00 0.00 0.00 28 1013.4
20260502062434 21 0 0.0 0.0 0.00 0.00 0.00 28 1013.2
20260502061937 21 0 0.0 0.0 0.00 0.00 0.00 28 1013.1
20260502061933 21 0 0.0 0.0 0.00 0.00 0.00 28 1013.1
20260502060933 21 0 0.0 1.6 0.00 0.00 0.00 28 1013.1
20260502060538 21 0 0.0 1.6 0.00 0.00 0.00 27 1013.1
20260502060437 21 0 0.0 1.6 0.00 0.00 0.00 27 1013.2
20260502060433 21 0 0.0 1.6 0.00 0.00 0.00 28 1013.1
20260502055536 21 0 0.0 0.0 0.00 0.00 0.00 27 1013.0
20260502054430 22 0 0.0 1.6 0.00 0.00 0.00 27 1012.9
20260502053929 22 0 0.0 1.6 0.00 0.00 0.00 26 1012.9
20260502053427 22 0 0.0 3.2 0.00 0.00 0.00 26 1012.9
20260502052932 22 0 0.0 3.2 0.00 0.00 0.00 26 1012.9
20260502052928 22 0 0.0 3.2 0.00 0.00 0.00 26 1012.9
20260502051928 22 0 0.0 3.2 0.00 0.00 0.00 26 1012.8
20260502051427 22 0 0.0 1.6 0.00 0.00 0.00 26 1012.7
20260502050928 22 0 0.0 3.2 0.00 0.00 0.00 26 1012.7
20260502050427 22 0 0.0 3.2 0.00 0.00 0.00 26 1012.7
20260502045929 22 0 0.0 6.4 0.00 0.00 0.00 26 1012.7
20260502045925 22 0 0.0 3.2 0.00 0.00 0.00 26 1012.8
20260502044926 23 0 1.6 6.4 0.00 0.00 0.00 26 1012.7
20260502044425 23 0 1.6 6.4 0.00 0.00 0.00 25 1012.7
20260502043926 23 0 1.6 6.4 0.00 0.00 0.00 25 1012.7
20260502043425 23 0 1.6 6.4 0.00 0.00 0.00 25 1012.5
20260502042926 23 0 1.6 6.4 0.00 0.00 0.00 25 1012.5
20260502042425 23 0 1.6 6.4 0.00 0.00 0.00 25 1012.5
20260502041925 23 0 1.6 8.0 0.00 0.00 0.00 25 1012.4
20260502041425 23 0 1.6 8.0 0.00 0.00 0.00 25 1012.3
20260502040925 23 0 1.6 8.0 0.00 0.00 0.00 25 1012.2
20260502040424 23 0 1.6 8.0 0.00 0.00 0.00 25 1012.2
20260502035923 23 0 1.6 6.4 0.00 0.00 0.00 25 1012.2
20260502035423 23 0 1.6 6.4 0.00 0.00 0.00 24 1012.1
20260502034922 23 0 0.0 3.2 0.00 0.00 0.00 24 1012.1
20260502034420 23 0 0.0 3.2 0.00 0.00 0.00 24 1012.0
20260502033920 23 0 0.0 6.4 0.00 0.00 0.00 24 1012.0
20260502033419 24 0 0.0 6.4 0.00 0.00 0.00 24 1011.9
20260502032923 24 0 0.0 1.6 0.00 0.00 0.00 24 1011.7
20260502032919 24 0 0.0 0.0 0.00 0.00 0.00 24 1011.9
20260502031917 24 0 0.0 1.6 0.00 0.00 0.00 23 1011.6
20260502031417 24 0 0.0 1.6 0.00 0.00 0.00 23 1011.6
20260502030917 25 0 0.0 0.0 0.00 0.00 0.00 23 1011.5
20260502030417 25 0 0.0 0.0 0.00 0.00 0.00 23 1011.4
20260502025922 25 0 0.0 0.0 0.00 0.00 0.00 22 1011.2
20260502025917 25 0 0.0 0.0 0.00 0.00 0.00 22 1011.3
20260502024917 25 0 0.0 1.6 0.00 0.00 0.00 22 1011.2
20260502024417 25 0 1.6 4.8 0.00 0.00 0.00 22 1011.1
20260502023917 25 0 1.6 6.4 0.00 0.00 0.00 21 1011.1
20260502023415 26 0 3.2 6.4 0.00 0.00 0.00 21 1011.0
20260502022915 26 0 3.2 8.0 0.00 0.00 0.00 21 1011.0
20260502022413 26 0 3.2 8.0 0.00 0.00 0.00 21 1011.0
20260502021913 26 0 4.8 9.7 0.00 0.00 0.00 20 1010.9
20260502021411 26 0 4.8 9.7 0.00 0.00 0.00 20 1010.8
20260502020915 26 0 4.8 8.0 0.00 0.00 0.00 20 1010.8
20260502020909 26 0 3.2 11.3 0.00 0.00 0.00 19 1010.7
20260502015909 27 0 4.8 12.9 0.00 0.00 0.00 19 1010.7
20260502015409 27 0 6.4 14.5 0.00 0.00 0.00 18 1010.6
20260502014914 27 0 1.6 11.3 0.00 0.00 0.00 18 1010.6
20260502014910 27 0 4.8 14.5 0.00 0.00 0.00 18 1010.6
20260502013909 27 0 1.6 8.0 0.00 0.00 0.00 18 1010.5
20260502013409 28 0 4.8 12.9 0.00 0.00 0.00 17 1010.5
20260502012913 28 0 6.4 11.3 0.00 0.00 0.00 17 1010.5
20260502012909 28 0 6.4 12.9 0.00 0.00 0.00 17 1010.5
20260502011911 28 18 6.4 17.7 0.00 0.00 0.00 17 1010.3
20260502011907 28 24 6.4 17.7 0.00 0.00 0.00 17 1010.5
20260502010912 28 256 3.2 12.9 0.00 0.00 0.00 17 1010.2
20260502010907 28 0 4.8 16.1 0.00 0.00 0.00 17 1010.3
20260502005907 28 0 4.8 12.9 0.00 0.00 0.00 17 1010.3
20260502005407 28 286 4.8 11.3 0.00 0.00 0.00 17 1010.2
20260502004911 28 9 6.4 12.9 0.00 0.00 0.00 17 1010.1
20260502004907 28 12 4.8 11.3 0.00 0.00 0.00 17 1010.1
20260502003909 29 0 3.2 11.3 0.00 0.00 0.00 17 1010.2
20260502003904 29 340 4.8 12.9 0.00 0.00 0.00 17 1010.2
20260502002910 29 5 6.4 16.1 0.00 0.00 0.00 17 1010.3
20260502002905 28 168 4.8 12.9 0.00 0.00 0.00 17 1010.2
20260502001905 29 340 6.4 16.1 0.00 0.00 0.00 17 1010.2
20260502001403 29 220 4.8 14.5 0.00 0.00 0.00 17 1010.2
20260502000903 29 327 6.4 17.7 0.00 0.00 0.00 17 1010.2
20260502000403 29 309 6.4 17.7 0.00 0.00 0.00 17 1010.3
20260501235901 29 292 6.4 12.9 0.00 0.00 0.00 17 1010.3
20260501235406 29 321 3.2 12.9 0.00 0.00 0.00 18 1010.2
20260501234901 29 348 4.8 17.7 0.00 0.00 0.00 19 1010.2
20260501234401 29 333 6.4 17.7 0.00 0.00 0.00 19 1010.2
20260501233901 29 350 6.4 14.5 0.00 0.00 0.00 18 1010.2
20260501233405 29 319 6.4 19.3 0.00 0.00 0.00 18 1010.2
20260501233401 29 346 8.0 19.3 0.00 0.00 0.00 19 1010.3
20260501232401 29 0 4.8 12.9 0.00 0.00 0.00 18 1010.2
20260501231901 29 0 3.2 11.3 0.00 0.00 0.00 18 1010.2
20260501231405 29 346 4.8 17.7 0.00 0.00 0.00 19 1010.3
20260501231400 28 197 6.4 17.7 0.00 0.00 0.00 19 1010.3
20260501230401 29 296 0.0 1.6 0.00 0.00 0.00 19 1010.3
20260501225901 29 344 0.0 6.4 0.00 0.00 0.00 19 1010.5
20260501225401 29 324 3.2 17.7 0.00 0.00 0.00 19 1010.3
20260501224901 29 0 6.4 19.3 0.00 0.00 0.00 19 1010.5
20260501224401 29 17 6.4 19.3 0.00 0.00 0.00 19 1010.6
20260501223859 29 302 3.2 12.9 0.00 0.00 0.00 19 1010.6
20260501223403 28 306 6.4 22.5 0.00 0.00 0.00 20 1010.7
20260501223359 29 291 4.8 16.1 0.00 0.00 0.00 20 1010.6
20260501222403 29 16 3.2 16.1 0.00 0.00 0.00 20 1010.8
20260501222359 29 332 4.8 22.5 0.00 0.00 0.00 20 1010.7
20260501221403 28 0 6.4 14.5 0.00 0.00 0.00 20 1011.0
20260501221358 29 0 4.8 14.5 0.00 0.00 0.00 20 1010.8
20260501220359 29 315 6.4 14.5 0.00 0.00 0.00 20 1011.0
20260501215859 29 0 4.8 12.9 0.00 0.00 0.00 20 1011.1
20260501215359 28 0 6.4 19.3 0.00 0.00 0.00 21 1011.2
20260501214858 28 0 6.4 19.3 0.00 0.00 0.00 20 1011.3
20260501214359 28 0 6.4 17.7 0.00 0.00 0.00 21 1011.2
20260501213857 28 0 6.4 16.1 0.00 0.00 0.00 20 1011.3
20260501213357 28 0 8.0 19.3 0.00 0.00 0.00 20 1011.5
20260501212855 28 0 8.0 19.3 0.00 0.00 0.00 20 1011.5
20260501212354 28 0 6.4 17.7 0.00 0.00 0.00 21 1011.5
20260501211855 28 0 6.4 17.7 0.00 0.00 0.00 21 1011.6
20260501211354 28 0 8.0 17.7 0.00 0.00 0.00 21 1011.6
20260501210852 28 0 4.8 17.7 0.00 0.00 0.00 21 1011.9
20260501210353 28 0 6.4 16.1 0.00 0.00 0.00 22 1011.9
20260501205853 28 0 6.4 20.9 0.00 0.00 0.00 21 1011.9
20260501205350 28 0 4.8 20.9 0.00 0.00 0.00 21 1012.0
20260501204851 28 0 4.8 14.5 0.00 0.00 0.00 21 1012.0
20260501204351 28 0 6.4 17.7 0.00 0.00 0.00 22 1012.1
20260501203850 28 0 6.4 17.7 0.00 0.00 0.00 21 1012.2
20260501203351 28 0 4.8 14.5 0.00 0.00 0.00 21 1012.2
20260501202850 28 0 3.2 14.5 0.00 0.00 0.00 21 1012.2
20260501202348 28 0 1.6 9.7 0.00 0.00 0.00 21 1012.3
20260501201849 28 0 3.2 16.1 0.00 0.00 0.00 22 1012.4
20260501201348 28 0 4.8 16.1 0.00 0.00 0.00 22 1012.5
20260501200847 27 0 4.8 16.1 0.00 0.00 0.00 23 1012.4
20260501200346 26 0 6.4 16.1 0.00 0.00 0.00 23 1012.5
20260501195846 26 0 6.4 17.7 0.00 0.00 0.00 23 1012.5
20260501195347 26 0 4.8 17.7 0.00 0.00 0.00 22 1012.6
20260501194846 26 0 3.2 12.9 0.00 0.00 0.00 22 1012.6
20260501194346 26 0 4.8 14.5 0.00 0.00 0.00 22 1012.7
20260501193846 26 0 3.2 14.5 0.00 0.00 0.00 23 1012.7
20260501193348 26 0 4.8 12.9 0.00 0.00 0.00 24 1012.8
20260501193344 26 0 1.6 11.3 0.00 0.00 0.00 24 1012.8
20260501192344 26 0 6.4 14.5 0.00 0.00 0.00 23 1013.0
20260501191844 26 0 4.8 14.5 0.00 0.00 0.00 24 1013.0
20260501191347 26 0 0.0 12.9 0.00 0.00 0.00 25 1013.1
20260501191343 26 0 1.6 14.5 0.00 0.00 0.00 25 1013.1
20260501190947 26 0 0.0 1.6 0.00 0.00 0.00 25 1013.0
20260501190446 26 0 0.0 1.6 0.00 0.00 0.00 25 1013.2
20260501185343 25 0 0.0 6.4 0.00 0.00 0.00 26 1013.4
20260501184842 25 0 0.0 6.4 0.00 0.00 0.00 26 1013.5
20260501184342 25 0 0.0 8.0 0.00 0.00 0.00 26 1013.6
20260501183843 25 0 0.0 8.0 0.00 0.00 0.00 26 1013.7
20260501183347 25 0 0.0 1.6 0.00 0.00 0.00 25 1013.8
20260501183343 25 0 0.0 1.6 0.00 0.00 0.00 26 1013.7
20260501182343 26 0 0.0 6.4 0.00 0.00 0.00 28 1013.8
20260501181840 25 0 0.0 16.1 0.00 0.00 0.00 28 1013.8
20260501181340 25 0 0.0 16.1 0.00 0.00 0.00 29 1013.9
20260501180841 25 0 0.0 1.6 0.00 0.00 0.00 30 1014.0
20260501180342 25 0 0.0 3.2 0.00 0.00 0.00 31 1014.0
20260501180338 25 0 0.0 3.2 0.00 0.00 0.00 30 1014.0
20260501175940 24 0 0.0 3.2 0.00 0.00 0.00 31 1014.0
20260501174835 24 0 0.0 1.6 0.00 0.00 0.00 33 1014.2
20260501174337 24 0 0.0 1.6 0.00 0.00 0.00 34 1014.2
20260501174333 24 0 0.0 1.6 0.00 0.00 0.00 34 1014.2
20260501173332 24 0 0.0 1.6 0.00 0.00 0.00 35 1014.2
20260501172832 23 0 0.0 3.2 0.00 0.00 0.00 35 1014.2
20260501172332 23 0 0.0 3.2 0.00 0.00 0.00 35 1014.2
20260501171831 23 0 0.0 3.2 0.00 0.00 0.00 36 1014.3
20260501171330 23 0 0.0 1.6 0.00 0.00 0.00 36 1014.3
20260501170830 23 0 0.0 0.0 0.00 0.00 0.00 37 1014.3
20260501170331 23 0 0.0 1.6 0.00 0.00 0.00 36 1014.3
20260501165828 23 0 0.0 1.6 0.00 0.00 0.00 38 1014.3
20260501165329 22 0 0.0 9.7 0.00 0.00 0.00 38 1014.2
20260501164829 22 0 0.0 9.7 0.00 0.00 0.00 38 1014.2
20260501164328 22 0 0.0 0.0 0.00 0.00 0.00 40 1014.2
20260501163828 22 0 0.0 0.0 0.00 0.00 0.00 40 1014.2
20260501163330 22 5 0.0 0.0 0.00 0.00 0.00 41 1014.2
20260501163326 22 0 0.0 0.0 0.00 0.00 0.00 40 1014.2
20260501162931 22 44 0.0 0.0 0.00 0.00 0.00 40 1014.2
20260501161828 22 308 0.0 1.6 0.00 0.00 0.00 41 1014.2
20260501161824 22 43 0.0 1.6 0.00 0.00 0.00 41 1014.2
20260501160824 22 0 0.0 0.0 0.00 0.00 0.00 45 1014.2
20260501160324 21 186 0.0 0.0 0.00 0.00 0.00 46 1014.1
20260501155824 21 0 0.0 0.0 0.00 0.00 0.00 45 1014.1
20260501155328 21 0 0.0 0.0 0.00 0.00 0.00 47 1014.0
20260501155324 21 0 0.0 0.0 0.00 0.00 0.00 46 1014.0
20260501154932 20 0 0.0 0.0 0.00 0.00 0.00 49 1014.0
20260501154928 21 0 0.0 0.0 0.00 0.00 0.00 47 1014.0
20260501153322 20 0 0.0 0.0 0.00 0.00 0.00 49 1013.9
20260501152822 20 0 0.0 0.0 0.00 0.00 0.00 49 1013.9
20260501152322 20 0 0.0 0.0 0.00 0.00 0.00 50 1013.9
20260501151822 20 0 0.0 0.0 0.00 0.00 0.00 50 1013.8
20260501151320 20 0 0.0 0.0 0.00 0.00 0.00 50 1013.8
20260501150820 20 0 0.0 0.0 0.00 0.00 0.00 51 1013.8
20260501150318 19 0 0.0 0.0 0.00 0.00 0.00 52 1013.7
20260501145816 19 0 0.0 0.0 0.00 0.00 0.00 52 1013.7
20260501145316 19 0 0.0 0.0 0.00 0.00 0.00 53 1013.7
20260501144814 19 0 0.0 0.0 0.00 0.00 0.00 53 1013.6
20260501144314 19 0 0.0 0.0 0.00 0.00 0.00 54 1013.5
20260501143818 18 0 0.0 0.0 0.00 0.00 0.00 58 1013.5
20260501143814 18 0 0.0 0.0 0.00 0.00 0.00 56 1013.5
20260501142812 18 0 0.0 0.0 0.00 0.00 0.00 58 1013.5
20260501142310 17 0 0.0 0.0 0.00 0.00 0.00 60 1013.5